Wynyard / W.B. Needham Field

Jump to: basic info | weather | frequencies | runways | comments

Related pages: nearby airports | nearby navaids | notams | map

Basic information (top)

Codes: CYYO
Location: lon 51.809888, lat -104.169788, elev 1,740 ft / 530 m msl
Status: small_airport
Scheduled airline service: no
Links: Wikipedia Mobile

Weather (top)

Current conditions for Yorkton Municipal Airport 72nm (133km) ESE (rec'd 2014/08/20 22:00Z):

CYQV 202200Z AUTO 25012G17KT 9SM CLR 25/19 A2969 RMK SLP055 DENSITY ALT 3400FT

Airport forecast for Yorkton Municipal Airport 72nm (133km) ESE (rec'd 2014/08/20 18:42Z):

TAF CYQV 201740Z 2018/2106 15012KT P6SM SCT220 
     FM202000 28010KT P6SM SCT040 BKN110 
      TEMPO 2020/2104 5SM -SHRA BR BKN040 PROB30 2020/2102 VRB15G25KT 4SM TSRA BKN040CB 
     FM210400 30006KT P6SM SCT020 BKN040 
      TEMPO 2104/2106 P6SM -SHRA BKN020 
      RMK FCST BASED ON AUTO OBS. NXT FCST BY 210000Z

Frequencies (top)

Verify before use: may be inaccurate or out of date.

ATF: 123.2 MHz (ATF)

Runways (top)

09/27: 3,000 x 75 ft (914 x 23 m) — paved — lighted

Latest comments (top)

Wynyard Airport renamed W.B. Needham Field: The Wynyard Airport was renamed "W.B. ... [read]

More... (top)

See also NOTAMs and nearby airports and navaids, or visit the Wynyard / W.B. Needham Field page at the main OurAirports website..